User: anonymous   Login
Location: New Plymouth
(39.0670°S, 174.0830°E)
Time: 04:18:52
(UTC+12:00)
Language:

NOAA 18 - Orbit

View from above orbital plane
View from above orbital plane
View from above satellite
View from above satellite

Ground track
Ground track

The orbit data is extracted from the following two-line orbital elements,

1 28654U 05018A   19234.87858771 +.00000042 +00000-0 +47570-4 0  9992
2 28654 099.0905 282.8073 0014110 358.7841 001.3293 14.12446386734621
Epoch (UTC): 22 August 2019 21:05:09
Eccentricity: 0.0014110
inclination: 99.0905°
perigee height: 841 km
apogee height: 861 km
right ascension of ascending node: 282.8073°
argument of perigee: 358.7841°
revolutions per day: 14.12446386
mean anomaly at epoch: 1.3293°
orbit number at epoch: 73462

The dashed part of the orbit path shows where the satellite is in the earth's shadow,  

DLR